﻿測定場所 (Monitoring sites),日付 (Measurement date),時間 (Measurement time),線量率 最大値 (max) μGy/h,線量率 最小値 (min) μGy/h,線量率 平均値 (average) μGy/h,
江戸川 (Edogawa),2015-06-07,23:01～24:00,0.0680,0.0601,0.0642,
江戸川 (Edogawa),2015-06-07,22:01～23:00,0.0678,0.0619,0.0647,
江戸川 (Edogawa),2015-06-07,21:01～22:00,0.0672,0.0604,0.0640,
江戸川 (Edogawa),2015-06-07,20:01～21:00,0.0691,0.0597,0.0643,
江戸川 (Edogawa),2015-06-07,19:01～20:00,0.0678,0.0617,0.0644,
江戸川 (Edogawa),2015-06-07,18:01～19:00,0.0684,0.0602,0.0639,
江戸川 (Edogawa),2015-06-07,17:01～18:00,0.0683,0.0600,0.0646,
江戸川 (Edogawa),2015-06-07,16:01～17:00,0.0670,0.0602,0.0641,
江戸川 (Edogawa),2015-06-07,15:01～16:00,0.0671,0.0603,0.0643,
江戸川 (Edogawa),2015-06-07,14:01～15:00,0.0674,0.0596,0.0638,
江戸川 (Edogawa),2015-06-07,13:01～14:00,0.0672,0.0608,0.0643,
江戸川 (Edogawa),2015-06-07,12:01～13:00,0.0671,0.0603,0.0634,
江戸川 (Edogawa),2015-06-07,11:01～12:00,0.0678,0.0602,0.0638,
江戸川 (Edogawa),2015-06-07,10:01～11:00,0.0665,0.0613,0.0639,
江戸川 (Edogawa),2015-06-07,09:01～10:00,0.0665,0.0601,0.0637,
江戸川 (Edogawa),2015-06-07,08:01～09:00,0.0670,0.0610,0.0636,
江戸川 (Edogawa),2015-06-07,07:01～08:00,0.0674,0.0607,0.0635,
江戸川 (Edogawa),2015-06-07,06:01～07:00,0.0676,0.0605,0.0635,
江戸川 (Edogawa),2015-06-07,05:01～06:00,0.0675,0.0607,0.0635,
江戸川 (Edogawa),2015-06-07,04:01～05:00,0.0664,0.0602,0.0635,
江戸川 (Edogawa),2015-06-07,03:01～04:00,0.0657,0.0593,0.0633,
江戸川 (Edogawa),2015-06-07,02:01～03:00,0.0684,0.0596,0.0635,
江戸川 (Edogawa),2015-06-07,01:01～02:00,0.0676,0.0594,0.0632,
江戸川 (Edogawa),2015-06-07,00:01～01:00,0.0681,0.0594,0.0634,
江戸川 (Edogawa),2015-06-06,23:01～24:00,0.0663,0.0596,0.0636,
江戸川 (Edogawa),2015-06-06,22:01～23:00,0.0673,0.0595,0.0634,
江戸川 (Edogawa),2015-06-06,21:01～22:00,0.0675,0.0588,0.0636,
江戸川 (Edogawa),2015-06-06,20:01～21:00,0.0689,0.0605,0.0634,
江戸川 (Edogawa),2015-06-06,19:01～20:00,0.0671,0.0580,0.0636,
江戸川 (Edogawa),2015-06-06,18:01～19:00,0.0671,0.0604,0.0640,
江戸川 (Edogawa),2015-06-06,17:01～18:00,0.0672,0.0602,0.0637,
江戸川 (Edogawa),2015-06-06,16:01～17:00,0.0671,0.0599,0.0635,
江戸川 (Edogawa),2015-06-06,15:01～16:00,0.0669,0.0595,0.0634,
江戸川 (Edogawa),2015-06-06,14:01～15:00,0.0671,0.0603,0.0634,
江戸川 (Edogawa),2015-06-06,13:01～14:00,0.0663,0.0594,0.0632,
江戸川 (Edogawa),2015-06-06,12:01～13:00,0.0664,0.0591,0.0634,
江戸川 (Edogawa),2015-06-06,11:01～12:00,0.0673,0.0599,0.0634,
江戸川 (Edogawa),2015-06-06,10:01～11:00,0.0668,0.0608,0.0637,
江戸川 (Edogawa),2015-06-06,09:01～10:00,0.0671,0.0592,0.0633,
江戸川 (Edogawa),2015-06-06,08:01～09:00,0.0676,0.0588,0.0637,
江戸川 (Edogawa),2015-06-06,07:01～08:00,0.0695,0.0621,0.0656,
江戸川 (Edogawa),2015-06-06,06:01～07:00,0.0709,0.0628,0.0665,
江戸川 (Edogawa),2015-06-06,05:01～06:00,0.0733,0.0635,0.0676,
江戸川 (Edogawa),2015-06-06,04:01～05:00,0.0744,0.0651,0.0690,
江戸川 (Edogawa),2015-06-06,03:01～04:00,0.0745,0.0646,0.0695,
江戸川 (Edogawa),2015-06-06,02:01～03:00,0.0716,0.0650,0.0692,
江戸川 (Edogawa),2015-06-06,01:01～02:00,0.0727,0.0642,0.0692,
江戸川 (Edogawa),2015-06-06,00:01～01:00,0.0744,0.0679,0.0713,
江戸川 (Edogawa),2015-06-05,23:01～24:00,0.0759,0.0686,0.0725,
江戸川 (Edogawa),2015-06-05,22:01～23:00,0.0788,0.0704,0.0740,
江戸川 (Edogawa),2015-06-05,21:01～22:00,0.0788,0.0692,0.0737,
江戸川 (Edogawa),2015-06-05,20:01～21:00,0.0851,0.0723,0.0773,
江戸川 (Edogawa),2015-06-05,19:01～20:00,0.0855,0.0745,0.0804,
江戸川 (Edogawa),2015-06-05,18:01～19:00,0.0837,0.0710,0.0755,
江戸川 (Edogawa),2015-06-05,17:01～18:00,0.0779,0.0701,0.0733,
江戸川 (Edogawa),2015-06-05,16:01～17:00,0.0799,0.0645,0.0700,
江戸川 (Edogawa),2015-06-05,15:01～16:00,0.0710,0.0625,0.0660,
江戸川 (Edogawa),2015-06-05,14:01～15:00,0.0696,0.0624,0.0660,
江戸川 (Edogawa),2015-06-05,13:01～14:00,0.0700,0.0615,0.0657,
江戸川 (Edogawa),2015-06-05,12:01～13:00,0.0700,0.0622,0.0657,
江戸川 (Edogawa),2015-06-05,11:01～12:00,0.0689,0.0603,0.0653,
江戸川 (Edogawa),2015-06-05,10:01～11:00,0.0684,0.0629,0.0656,
江戸川 (Edogawa),2015-06-05,09:01～10:00,0.0688,0.0612,0.0656,
江戸川 (Edogawa),2015-06-05,08:01～09:00,0.0697,0.0618,0.0664,
江戸川 (Edogawa),2015-06-05,07:01～08:00,0.0708,0.0621,0.0664,
江戸川 (Edogawa),2015-06-05,06:01～07:00,0.0692,0.0627,0.0658,
江戸川 (Edogawa),2015-06-05,05:01～06:00,0.0682,0.0631,0.0662,
江戸川 (Edogawa),2015-06-05,04:01～05:00,0.0689,0.0620,0.0655,
江戸川 (Edogawa),2015-06-05,03:01～04:00,0.0705,0.0626,0.0659,
江戸川 (Edogawa),2015-06-05,02:01～03:00,0.0703,0.0630,0.0661,
江戸川 (Edogawa),2015-06-05,01:01～02:00,0.0691,0.0620,0.0655,
江戸川 (Edogawa),2015-06-05,00:01～01:00,0.0701,0.0626,0.0656,
江戸川 (Edogawa),2015-06-04,23:01～24:00,0.0698,0.0614,0.0660,
江戸川 (Edogawa),2015-06-04,22:01～23:00,0.0700,0.0621,0.0657,
江戸川 (Edogawa),2015-06-04,21:01～22:00,0.0698,0.0625,0.0658,
江戸川 (Edogawa),2015-06-04,20:01～21:00,0.0713,0.0621,0.0660,
江戸川 (Edogawa),2015-06-04,19:01～20:00,0.0691,0.0610,0.0662,
江戸川 (Edogawa),2015-06-04,18:01～19:00,0.0702,0.0626,0.0660,
江戸川 (Edogawa),2015-06-04,17:01～18:00,0.0723,0.0623,0.0668,
江戸川 (Edogawa),2015-06-04,16:01～17:00,0.0722,0.0619,0.0664,
江戸川 (Edogawa),2015-06-04,15:01～16:00,0.0689,0.0617,0.0653,
江戸川 (Edogawa),2015-06-04,14:01～15:00,0.0689,0.0624,0.0658,
江戸川 (Edogawa),2015-06-04,13:01～14:00,0.0691,0.0620,0.0658,
江戸川 (Edogawa),2015-06-04,12:01～13:00,0.0691,0.0629,0.0658,
江戸川 (Edogawa),2015-06-04,11:01～12:00,0.0684,0.0619,0.0654,
江戸川 (Edogawa),2015-06-04,10:01～11:00,0.0680,0.0609,0.0652,
江戸川 (Edogawa),2015-06-04,09:01～10:00,0.0687,0.0615,0.0652,
江戸川 (Edogawa),2015-06-04,08:01～09:00,0.0687,0.0610,0.0648,
江戸川 (Edogawa),2015-06-04,07:01～08:00,0.0690,0.0614,0.0650,
江戸川 (Edogawa),2015-06-04,06:01～07:00,0.0677,0.0624,0.0650,
江戸川 (Edogawa),2015-06-04,05:01～06:00,0.0674,0.0615,0.0645,
江戸川 (Edogawa),2015-06-04,04:01～05:00,0.0679,0.0611,0.0644,
江戸川 (Edogawa),2015-06-04,03:01～04:00,0.0684,0.0615,0.0649,
江戸川 (Edogawa),2015-06-04,02:01～03:00,0.0690,0.0614,0.0645,
江戸川 (Edogawa),2015-06-04,01:01～02:00,0.0684,0.0602,0.0652,
江戸川 (Edogawa),2015-06-04,00:01～01:00,0.0686,0.0613,0.0649,
江戸川 (Edogawa),2015-06-03,23:01～24:00,0.0705,0.0599,0.0649,
江戸川 (Edogawa),2015-06-03,22:01～23:00,0.0706,0.0613,0.0646,
江戸川 (Edogawa),2015-06-03,21:01～22:00,0.0675,0.0606,0.0650,
江戸川 (Edogawa),2015-06-03,20:01～21:00,0.0677,0.0608,0.0646,
江戸川 (Edogawa),2015-06-03,19:01～20:00,0.0673,0.0607,0.0644,
江戸川 (Edogawa),2015-06-03,18:01～19:00,0.0688,0.0612,0.0645,
江戸川 (Edogawa),2015-06-03,17:01～18:00,0.0682,0.0608,0.0643,
江戸川 (Edogawa),2015-06-03,16:01～17:00,0.0684,0.0610,0.0643,
江戸川 (Edogawa),2015-06-03,15:01～16:00,0.0689,0.0600,0.0647,
江戸川 (Edogawa),2015-06-03,14:01～15:00,0.0713,0.0627,0.0665,
江戸川 (Edogawa),2015-06-03,13:01～14:00,0.0749,0.0654,0.0704,
江戸川 (Edogawa),2015-06-03,12:01～13:00,0.0791,0.0689,0.0735,
江戸川 (Edogawa),2015-06-03,11:01～12:00,0.0835,0.0725,0.0773,
江戸川 (Edogawa),2015-06-03,10:01～11:00,0.0852,0.0726,0.0777,
江戸川 (Edogawa),2015-06-03,09:01～10:00,0.0878,0.0729,0.0796,
江戸川 (Edogawa),2015-06-03,08:01～09:00,0.0871,0.0744,0.0806,
江戸川 (Edogawa),2015-06-03,07:01～08:00,0.0865,0.0749,0.0807,
江戸川 (Edogawa),2015-06-03,06:01～07:00,0.0805,0.0702,0.0739,
江戸川 (Edogawa),2015-06-03,05:01～06:00,0.0731,0.0647,0.0693,
江戸川 (Edogawa),2015-06-03,04:01～05:00,0.0721,0.0635,0.0680,
江戸川 (Edogawa),2015-06-03,03:01～04:00,0.0718,0.0636,0.0674,
江戸川 (Edogawa),2015-06-03,02:01～03:00,0.0719,0.0635,0.0673,
江戸川 (Edogawa),2015-06-03,01:01～02:00,0.0707,0.0643,0.0679,
江戸川 (Edogawa),2015-06-03,00:01～01:00,0.0716,0.0646,0.0676,
江戸川 (Edogawa),2015-06-02,23:01～24:00,0.0705,0.0631,0.0674,
江戸川 (Edogawa),2015-06-02,22:01～23:00,0.0709,0.0643,0.0677,
江戸川 (Edogawa),2015-06-02,21:01～22:00,0.0714,0.0640,0.0677,
江戸川 (Edogawa),2015-06-02,20:01～21:00,0.0712,0.0645,0.0677,
江戸川 (Edogawa),2015-06-02,19:01～20:00,0.0715,0.0625,0.0677,
江戸川 (Edogawa),2015-06-02,18:01～19:00,0.0720,0.0641,0.0675,
江戸川 (Edogawa),2015-06-02,17:01～18:00,0.0711,0.0644,0.0677,
江戸川 (Edogawa),2015-06-02,16:01～17:00,0.0717,0.0641,0.0678,
江戸川 (Edogawa),2015-06-02,15:01～16:00,0.0700,0.0639,0.0673,
江戸川 (Edogawa),2015-06-02,14:01～15:00,0.0715,0.0632,0.0674,
江戸川 (Edogawa),2015-06-02,13:01～14:00,0.0728,0.0635,0.0676,
江戸川 (Edogawa),2015-06-02,12:01～13:00,0.0716,0.0644,0.0673,
江戸川 (Edogawa),2015-06-02,11:01～12:00,0.0710,0.0646,0.0675,
江戸川 (Edogawa),2015-06-02,10:01～11:00,0.0695,0.0629,0.0670,
江戸川 (Edogawa),2015-06-02,09:01～10:00,0.0707,0.0637,0.0674,
江戸川 (Edogawa),2015-06-02,08:01～09:00,0.0700,0.0642,0.0677,
江戸川 (Edogawa),2015-06-02,07:01～08:00,0.0707,0.0635,0.0672,
江戸川 (Edogawa),2015-06-02,06:01～07:00,0.0713,0.0636,0.0676,
江戸川 (Edogawa),2015-06-02,05:01～06:00,0.0724,0.0637,0.0674,
江戸川 (Edogawa),2015-06-02,04:01～05:00,0.0724,0.0645,0.0677,
江戸川 (Edogawa),2015-06-02,03:01～04:00,0.0731,0.0636,0.0677,
江戸川 (Edogawa),2015-06-02,02:01～03:00,0.0711,0.0647,0.0673,
江戸川 (Edogawa),2015-06-02,01:01～02:00,0.0709,0.0638,0.0673,
江戸川 (Edogawa),2015-06-02,00:01～01:00,0.0714,0.0634,0.0672,
江戸川 (Edogawa),2015-06-01,23:01～24:00,0.0699,0.0628,0.0673,
江戸川 (Edogawa),2015-06-01,22:01～23:00,0.0706,0.0638,0.0676,
江戸川 (Edogawa),2015-06-01,21:01～22:00,0.0704,0.0631,0.0678,
江戸川 (Edogawa),2015-06-01,20:01～21:00,0.0731,0.0639,0.0672,
江戸川 (Edogawa),2015-06-01,19:01～20:00,0.0732,0.0633,0.0677,
江戸川 (Edogawa),2015-06-01,18:01～19:00,0.0716,0.0640,0.0674,
江戸川 (Edogawa),2015-06-01,17:01～18:00,0.0709,0.0639,0.0675,
江戸川 (Edogawa),2015-06-01,16:01～17:00,0.0720,0.0639,0.0674,
江戸川 (Edogawa),2015-06-01,15:01～16:00,0.0708,0.0637,0.0677,
江戸川 (Edogawa),2015-06-01,14:01～15:00,0.0701,0.0637,0.0674,
江戸川 (Edogawa),2015-06-01,13:01～14:00,0.0721,0.0636,0.0674,
江戸川 (Edogawa),2015-06-01,12:01～13:00,0.0711,0.0649,0.0674,
江戸川 (Edogawa),2015-06-01,11:01～12:00,0.0708,0.0648,0.0676,
江戸川 (Edogawa),2015-06-01,10:01～11:00,0.0700,0.0628,0.0673,
江戸川 (Edogawa),2015-06-01,09:01～10:00,0.0700,0.0632,0.0669,
江戸川 (Edogawa),2015-06-01,08:01～09:00,0.0711,0.0635,0.0673,
江戸川 (Edogawa),2015-06-01,07:01～08:00,0.0709,0.0627,0.0672,
江戸川 (Edogawa),2015-06-01,06:01～07:00,0.0704,0.0639,0.0669,
江戸川 (Edogawa),2015-06-01,05:01～06:00,0.0714,0.0630,0.0673,
江戸川 (Edogawa),2015-06-01,04:01～05:00,0.0704,0.0641,0.0671,
江戸川 (Edogawa),2015-06-01,03:01～04:00,0.0701,0.0620,0.0673,
江戸川 (Edogawa),2015-06-01,02:01～03:00,0.0702,0.0632,0.0671,
江戸川 (Edogawa),2015-06-01,01:01～02:00,0.0700,0.0636,0.0670,
江戸川 (Edogawa),2015-06-01,00:01～01:00,0.0718,0.0634,0.0668,
